Location: Unspecified
(44.4377°N, 88.0525°W)
Time: 23:05:31
(UTC-06:00)

CZ-3 Stage 3 - Visible Passes

Search period start: 22 February 2017 00:00
Search period end: 04 March 2017 00:00
Orbit: 412 x 34789 km, 30.6° (Epoch: 21 February)

Date Brightness Start Highest point End Pass type
(mag) Time Alt. Az. Time Alt. Az. Time Alt. Az.
22 Feb 8.5 18:43:57 10° ENE 23:30:56 27° E 01:27:15 10° E visible
23 Feb 8.9 03:52:47 10° W 05:44:06 26° W 09:56:31 10° WNW visible
23 Feb 8.1 23:43:52 10° SW 02:18:12 66° SW 09:00:19 10° SSW visible
24 Feb 7.5 20:06:21 10° S 02:34:21 66° SE 05:25:08 10° SE visible
25 Feb 8.4 18:31:58 10° ENE 23:21:30 27° E 01:17:53 10° E visible
26 Feb 8.9 03:43:26 10° W 05:34:24 26° W 09:44:49 10° WNW visible
26 Feb 8.1 23:34:54 10° WSW 02:07:20 66° SW 08:51:00 10° SSW visible
27 Feb 7.4 19:57:13 10° S 02:23:09 65° SE 05:16:06 10° SE visible
28 Feb 8.3 18:20:02 10° ENE 23:12:06 26° E 01:08:29 10° E visible
01 Mar 9.0 03:34:04 10° W 05:24:37 26° W 09:33:02 10° WNW visible
01 Mar 8.1 23:25:56 10° WSW 01:56:26 66° SW 08:41:37 10° SSW visible
02 Mar 7.4 19:48:05 10° S 02:11:56 65° SE 05:07:02 10° SE visible
